Wind_Speed
18 18 19 18 17 17 18 18 18 18 18 18 19 19 20 20 21 21 21 21 21 21 21 21 21 22 22 22 22 22 22 22 22 22 21 21 21 21 21 21 20 20 19 19
18 18 18 18 18 18 19 18 18 19 19 19 20 20 20 21 21 21 21 22 20 20 21 22 22 22 21 21 21 22 22 21 21 21 21 21 21 21 21 20 19 19 18 18
19 18 18 18 19 19 20 19 19 20 20 20 20 21 21 22 22 23 22 22 21 21 21 21 21 21 21 21 21 21 21 21 21 21 21 21 20 20 20 20 19 19 18 18
20 20 20 20 20 20 20 20 20 20 21 21 22 22 23 23 24 23 22 22 21 22 22 21 21 21 21 21 20 20 21 20 20 20 20 20 20 20 20 19 19 20 19 19
22 22 22 21 21 21 21 21 21 21 21 23 23 23 23 23 23 22 22 22 22 22 21 21 22 21 21 20 19 20 20 20 19 20 20 20 21 20 20 19 19 19 18 18
23 24 24 23 22 22 22 22 22 23 23 23 23 23 23 23 23 23 23 23 23 22 22 22 22 21 20 19 19 20 19 19 19 19 20 20 20 20 19 19 19 18 17 17
24 24 24 24 24 23 23 24 24 24 24 24 24 24 24 23 23 24 24 24 23 22 22 22 21 21 20 19 18 19 18 18 18 19 19 20 20 19 19 18 17 17 16 16
25 25 25 25 24 24 24 24 24 25 24 24 24 24 24 23 23 24 24 23 22 21 22 21 20 19 18 17 16 16 16 17 18 19 19 19 18 18 18 17 15 15 15 15
25 25 25 24 24 24 24 24 24 24 24 23 24 24 24 24 24 24 23 22 22 21 21 20 19 19 17 16 15 15 16 17 17 17 18 17 17 16 16 15 14 13 13 14
25 25 25 25 24 24 24 24 24 25 24 24 25 25 24 23 23 22 22 22 22 22 21 20 19 18 17 16 16 16 17 17 15 16 16 16 16 15 14 13 13 13 13 14
25 25 25 25 24 24 24 24 24 24 24 25 25 24 24 23 22 21 21 21 22 21 20 19 18 17 16 16 16 16 15 14 14 14 14 14 13 13 12 12 13 13 13 15
26 26 26 25 25 24 24 23 23 23 23 23 24 24 23 22 21 20 19 20 20 19 18 18 17 16 16 15 15 14 14 13 13 13 13 12 12 12 12 13 13 14 14 16
26 26 27 26 26 25 25 24 24 23 23 24 23 23 22 20 19 18 18 19 19 18 18 17 16 15 14 14 13 13 13 13 12 12 11 11 12 13 13 13 13 14 15 16
27 27 27 27 26 25 25 24 23 23 23 23 22 21 20 19 18 17 17 17 17 17 17 16 15 14 13 13 12 12 12 11 10 10 11 12 13 13 13 13 13 14 15 16
28 28 27 26 25 25 24 24 24 23 23 22 22 21 19 18 17 16 17 16 16 16 15 15 14 13 13 12 12 11 10 9 8 9 10 11 12 13 12 13 13 14 16 17
29 28 27 26 25 25 25 24 23 22 22 22 21 20 19 18 17 17 16 16 15 14 14 13 13 12 12 12 11 9 8 7 7 8 9 10 12 12 12 13 13 15 16 17
29 28 27 26 26 25 24 24 23 23 23 22 21 20 19 18 17 16 16 15 14 14 14 13 12 11 11 10 9 7 6 6 7 7 8 10 11 11 12 13 14 15 16 17
28 28 27 27 25 24 23 23 23 23 23 22 21 20 19 18 17 16 15 15 14 14 13 12 11 10 9 9 8 7 6 6 6 7 9 10 10 11 12 13 14 15 16 17
27 27 27 26 25 24 23 23 23 23 22 21 20 19 18 17 16 16 15 15 14 14 13 11 9 9 9 8 7 6 5 5 6 7 8 9 10 10 11 12 14 15 15 17
27 26 26 25 24 23 23 23 23 22 21 20 19 18 18 17 16 16 15 14 14 13 12 10 9 9 8 7 7 6 5 5 6 7 8 10 10 11 11 12 13 14 15 17
27 26 26 25 24 24 23 23 22 21 20 19 18 18 17 16 15 15 15 14 13 12 11 10 9 8 7 6 6 6 5 5 6 7 8 10 11 11 11 12 13 14 15 16
27 26 25 25 25 24 23 22 22 21 20 19 18 17 16 15 15 14 14 13 12 11 10 9 9 8 7 6 6 6 6 6 7 8 9 10 11 11 11 11 12 13 14 16
26 25 24 24 24 23 22 22 21 20 19 18 17 17 16 15 15 14 13 12 11 11 10 10 10 9 8 7 6 6 6 6 7 8 9 10 11 11 11 11 12 13 14 16
26 25 25 24 23 23 22 21 21 20 19 18 17 17 16 15 15 14 13 12 12 12 11 11 10 9 8 8 7 7 7 7 7 8 9 10 10 10 10 10 11 13 14 16
26 26 25 25 24 23 22 21 21 20 19 18 18 17 16 15 15 14 13 13 12 12 12 11 10 9 9 8 7 7 7 7 7 8 8 9 9 9 9 10 11 13 14 16
27 26 26 25 24 24 23 22 21 19 19 19 19 18 17 16 16 15 14 13 13 12 11 11 10 10 9 8 7 7 7 7 7 8 8 8 9 9 9 10 11 13 14 16
28 27 27 26 25 24 24 22 21 20 19 19 18 18 17 17 16 15 14 12 12 12 12 11 11 11 10 9 8 8 7 7 7 7 8 8 9 9 9 9 10 12 14 16
Wind_Direction
315 315 315 314 313 313 312 311 309 309 306 307 307 308 308 308 308 307 307 306 303 304 304 304 304 304 305 305 305 305 306 306 305 306 306 308 310 311 311 310 310 310 309 308
314 314 314 313 312 310 310 308 307 307 306 307 305 306 307 308 309 309 308 307 305 304 303 304 305 305 307 307 306 307 307 307 306 305 306 306 308 309 309 310 312 311 309 309
312 313 313 314 313 311 309 308 306 305 305 304 304 306 307 306 307 309 309 309 307 306 305 306 307 309 309 307 306 307 308 308 307 305 303 304 305 307 307 306 308 308 308 306
312 311 311 313 311 308 307 307 306 305 303 303 303 305 307 306 307 309 310 309 309 309 309 309 311 311 309 308 307 307 309 309 308 307 306 306 307 306 305 305 306 307 305 307
314 313 313 313 310 308 306 305 304 303 303 302 303 304 305 306 307 309 310 310 309 310 310 310 310 311 310 309 308 310 311 310 310 309 308 309 311 310 306 306 308 306 307 309
313 312 313 313 311 309 307 305 304 305 304 304 304 304 305 306 307 308 308 308 309 309 309 310 311 311 310 308 309 310 311 310 312 313 312 313 314 314 311 310 309 308 309 311
312 311 310 310 310 309 308 307 306 306 306 306 305 306 305 305 306 307 308 306 306 307 307 309 310 310 311 312 311 310 311 313 316 317 316 315 315 315 314 315 315 315 312 313
309 310 310 308 307 308 307 306 305 306 306 305 305 304 303 303 305 304 305 305 305 306 307 308 308 309 309 312 311 312 314 316 319 320 320 318 316 316 317 319 321 320 317 317
308 309 309 308 306 306 306 307 307 307 307 307 305 303 302 302 303 304 304 304 304 305 306 306 308 307 305 306 307 310 313 316 319 322 323 321 320 319 321 323 326 325 322 321
307 308 307 306 306 306 307 308 308 307 307 307 304 302 303 304 306 304 303 303 303 304 304 304 306 306 306 306 306 308 312 316 319 322 324 324 324 322 326 329 330 330 327 325
305 305 304 305 306 307 308 308 308 308 307 307 305 303 304 307 307 305 303 303 303 304 305 306 308 308 309 309 309 312 314 316 318 321 322 325 328 328 331 333 333 333 332 329
304 303 304 306 306 305 306 306 307 310 309 306 306 306 306 307 307 308 307 306 306 309 311 312 311 310 309 308 307 310 312 316 318 320 322 327 333 334 337 338 337 336 333 331
303 303 303 303 304 303 304 305 306 308 308 308 308 308 308 307 307 308 309 308 308 309 311 312 311 310 307 307 310 313 315 316 319 324 329 333 333 335 340 342 340 339 338 336
301 302 302 301 300 301 301 303 304 306 308 308 309 309 306 306 308 309 310 308 307 308 310 310 309 309 309 309 311 313 316 318 323 329 335 336 335 340 345 347 347 344 341 340
299 300 301 299 297 297 298 300 302 305 308 307 306 306 305 306 307 308 310 309 310 310 310 311 311 311 310 309 312 315 317 321 328 336 341 343 343 345 346 348 348 345 344 344
295 298 299 298 296 296 296 298 299 303 305 306 305 303 302 303 305 306 307 308 309 310 311 313 312 311 311 311 313 318 323 328 333 340 347 348 346 345 345 346 345 344 345 346
293 294 295 296 296 296 295 295 296 299 302 303 303 302 301 301 302 304 304 304 306 308 309 310 311 309 310 315 317 317 320 325 332 339 343 343 343 343 344 345 345 346 347 346
291 292 292 294 295 295 294 295 296 297 298 299 298 298 298 298 298 302 301 298 298 303 306 305 306 307 311 314 318 315 311 316 325 332 335 337 339 341 345 348 348 349 349 348
288 289 290 290 291 291 292 293 294 296 297 296 294 294 294 295 297 298 297 293 291 295 301 303 303 307 310 312 314 314 316 320 326 332 337 339 340 343 346 349 349 349 349 349
286 286 287 287 288 288 289 291 292 292 294 293 292 292 291 292 293 293 292 290 287 289 292 295 299 305 310 310 309 310 316 321 323 328 334 339 341 343 346 346 346 348 350 350
284 285 286 285 285 285 286 287 288 289 291 291 289 289 289 290 290 288 286 285 283 282 285 290 294 299 306 306 308 310 312 315 319 324 330 335 338 340 343 344 345 347 349 350
282 284 285 285 285 284 285 285 285 286 286 286 285 285 286 285 286 286 285 283 279 278 278 280 285 291 296 297 296 299 304 308 317 324 330 334 338 341 342 344 347 348 350 351
280 283 283 284 285 284 283 282 282 282 281 280 281 282 281 280 282 284 283 278 276 274 273 274 277 281 286 286 289 296 300 305 315 324 330 333 335 337 341 346 347 348 349 350
278 280 281 283 284 282 282 281 279 278 277 276 277 278 277 277 279 280 278 274 271 269 270 272 273 274 275 274 278 286 295 300 310 320 326 330 334 336 339 344 345 347 348 350
274 276 278 280 280 280 280 278 277 276 275 274 274 274 274 275 277 276 274 271 269 268 266 266 268 268 268 269 275 281 290 295 303 313 322 329 333 335 337 340 342 345 349 351
272 274 276 277 278 277 276 274 274 273 273 273 271 270 270 271 273 272 270 269 266 262 261 264 265 264 263 265 268 274 282 288 296 306 315 324 330 335 339 340 342 346 350 352
271 273 274 275 275 274 273 272 271 269 269 269 268 268 267 266 267 267 266 265 265 260 258 260 260 258 257 258 261 268 276 283 291 300 309 319 326 331 335 337 342 346 349 351
Height
5820 5818 5815 5813 5811 5809 5806 5804 5801 5800 5797 5795 5793 5790 5788 5786 5783 5780 5777 5774 5772 5769 5766 5764 5761 5759 5757 5754 5751 5749 5746 5744 5741 5739 5736 5733 5730 5727 5724 5721 5717 5714 5712 5710
5818 5815 5812 5810 5808 5805 5803 5800 5798 5796 5794 5791 5789 5787 5784 5782 5779 5776 5773 5770 5766 5764 5761 5759 5756 5754 5751 5749 5746 5744 5741 5738 5736 5733 5731 5728 5725 5722 5719 5716 5713 5710 5708 5706
5815 5812 5809 5807 5805 5801 5799 5796 5794 5792 5791 5787 5785 5783 5780 5778 5775 5771 5768 5765 5762 5759 5757 5754 5751 5748 5746 5744 5741 5738 5736 5733 5731 5729 5726 5723 5720 5718 5715 5712 5709 5706 5703 5701
5810 5809 5806 5805 5800 5797 5795 5793 5790 5787 5785 5783 5780 5778 5775 5772 5769 5766 5763 5760 5757 5754 5751 5749 5746 5744 5741 5738 5736 5733 5731 5729 5726 5724 5721 5718 5715 5713 5710 5707 5704 5702 5699 5697
5806 5803 5801 5799 5796 5793 5791 5789 5786 5783 5781 5778 5776 5773 5771 5767 5764 5761 5758 5755 5752 5750 5747 5744 5741 5739 5736 5733 5731 5729 5726 5724 5721 5719 5716 5713 5710 5708 5704 5702 5699 5697 5694 5692
5801 5798 5796 5795 5791 5788 5787 5784 5781 5778 5776 5773 5770 5768 5766 5762 5759 5756 5753 5750 5747 5745 5741 5739 5736 5733 5731 5728 5726 5724 5722 5719 5717 5714 5711 5708 5705 5703 5700 5697 5694 5692 5690 5688
5797 5794 5791 5789 5786 5784 5782 5780 5776 5773 5770 5768 5765 5762 5760 5757 5753 5750 5748 5745 5742 5739 5736 5734 5731 5728 5726 5724 5722 5720 5717 5715 5712 5709 5706 5704 5701 5698 5695 5692 5690 5687 5686 5684
5792 5789 5789 5784 5781 5779 5776 5773 5770 5767 5765 5762 5759 5757 5754 5751 5748 5745 5742 5740 5737 5734 5731 5728 5726 5724 5722 5720 5718 5715 5713 5711 5708 5705 5702 5700 5697 5694 5691 5689 5686 5684 5682 5681
5788 5787 5782 5778 5775 5773 5770 5767 5765 5762 5759 5757 5754 5752 5749 5746 5742 5739 5737 5734 5731 5728 5726 5723 5721 5719 5717 5716 5714 5711 5709 5707 5704 5702 5699 5696 5693 5691 5688 5686 5684 5681 5679 5678
5782 5780 5777 5773 5771 5768 5765 5762 5759 5757 5754 5751 5749 5746 5743 5740 5737 5734 5731 5729 5726 5723 5721 5719 5717 5715 5713 5711 5709 5707 5705 5703 5701 5698 5696 5693 5691 5688 5686 5684 5681 5679 5677 5675
5777 5775 5772 5769 5766 5763 5760 5757 5754 5752 5749 5746 5743 5740 5738 5735 5732 5729 5726 5724 5721 5718 5716 5715 5713 5711 5709 5707 5705 5703 5701 5699 5697 5695 5693 5690 5688 5686 5684 5681 5679 5677 5675 5673
5772 5769 5766 5764 5761 5758 5755 5753 5750 5747 5744 5741 5738 5735 5733 5730 5727 5724 5722 5719 5717 5714 5712 5711 5709 5707 5705 5703 5701 5700 5698 5696 5694 5692 5690 5688 5686 5684 5682 5680 5677 5675 5673 5670
5765 5763 5760 5758 5755 5752 5750 5747 5745 5742 5739 5736 5733 5730 5728 5725 5723 5721 5718 5715 5713 5711 5709 5707 5705 5703 5702 5700 5698 5696 5695 5693 5691 5689 5688 5686 5684 5682 5680 5678 5675 5673 5670 5668
5759 5756 5754 5751 5749 5747 5744 5742 5740 5737 5734 5731 5728 5726 5723 5721 5719 5717 5714 5712 5709 5707 5705 5703 5702 5700 5699 5697 5695 5694 5692 5690 5689 5687 5686 5684 5682 5680 5678 5676 5674 5672 5669 5666
5753 5750 5747 5745 5743 5741 5738 5736 5734 5732 5729 5727 5724 5722 5720 5718 5716 5714 5711 5709 5707 5704 5702 5701 5699 5697 5696 5694 5693 5691 5689 5688 5687 5686 5684 5683 5681 5679 5677 5675 5673 5670 5667 5664
5746 5743 5741 5739 5737 5735 5733 5731 5729 5727 5724 5722 5720 5718 5716 5714 5712 5710 5708 5706 5704 5702 5700 5698 5696 5695 5693 5692 5690 5689 5688 5687 5686 5685 5683 5682 5680 5678 5676 5674 5671 5669 5666 5663
5739 5737 5735 5733 5731 5729 5727 5725 5723 5721 5719 5717 5715 5713 5711 5710 5708 5706 5705 5703 5701 5699 5697 5696 5694 5692 5691 5689 5688 5687 5686 5686 5685 5683 5682 5680 5679 5677 5675 5672 5670 5667 5664 5661
5731 5730 5728 5726 5724 5722 5721 5719 5717 5715 5713 5712 5710 5708 5707 5705 5704 5703 5701 5700 5698 5697 5695 5693 5692 5690 5689 5688 5687 5686 5685 5684 5684 5683 5681 5679 5678 5676 5674 5671 5669 5666 5663 5660
5724 5723 5721 5719 5717 5716 5714 5713 5711 5710 5708 5706 5705 5704 5702 5701 5700 5699 5698 5696 5695 5694 5692 5691 5690 5688 5687 5686 5685 5684 5684 5683 5683 5681 5680 5678 5677 5675 5673 5670 5668 5665 5662 5659
5717 5715 5714 5712 5711 5709 5708 5707 5705 5704 5702 5701 5700 5699 5698 5697 5695 5695 5694 5693 5691 5690 5690 5689 5688 5686 5685 5684 5684 5683 5683 5682 5682 5681 5679 5678 5676 5674 5672 5669 5667 5664 5661 5658
5709 5708 5707 5706 5704 5703 5701 5700 5699 5698 5697 5696 5695 5694 5693 5692 5691 5690 5689 5688 5688 5687 5686 5686 5685 5684 5684 5683 5683 5682 5682 5681 5681 5680 5678 5677 5675 5673 5671 5668 5666 5663 5660 5657
5701 5700 5699 5698 5697 5696 5695 5694 5693 5692 5691 5690 5690 5689 5688 5687 5686 5686 5685 5684 5684 5684 5684 5683 5683 5682 5682 5682 5681 5681 5680 5680 5679 5678 5677 5675 5673 5671 5670 5667 5665 5662 5659 5656
5693 5692 5691 5691 5690 5689 5688 5687 5686 5686 5685 5684 5684 5683 5683 5682 5682 5681 5680 5680 5680 5680 5680 5680 5680 5680 5680 5680 5679 5679 5679 5678 5677 5676 5675 5673 5672 5670 5668 5666 5664 5661 5659 5655
5685 5684 5684 5683 5682 5682 5681 5681 5680 5679 5679 5678 5678 5678 5678 5678 5677 5677 5676 5676 5676 5677 5677 5677 5677 5677 5677 5677 5677 5677 5676 5676 5675 5674 5673 5672 5670 5668 5667 5665 5663 5660 5657 5654
5677 5677 5676 5676 5675 5675 5674 5674 5673 5673 5673 5673 5673 5673 5672 5672 5673 5672 5672 5672 5673 5673 5673 5673 5674 5674 5674 5674 5674 5674 5674 5674 5673 5672 5671 5670 5668 5667 5665 5663 5661 5659 5656 5653
5669 5669 5668 5668 5667 5667 5667 5667 5667 5666 5666 5667 5667 5667 5667 5667 5667 5667 5667 5668 5668 5669 5669 5670 5670 5671 5671 5671 5671 5672 5671 5671 5671 5670 5669 5668 5667 5665 5663 5662 5660 5658 5655 5652
5660 5660 5660 5660 5660 5660 5660 5659 5659 5660 5660 5660 5660 5661 5661 5662 5662 5662 5663 5663 5664 5664 5665 5666 5666 5667 5668 5668 5669 5669 5669 5668 5668 5668 5667 5666 5665 5663 5662 5660 5658 5656 5654 5651